START_TIME,STEP,MOV.,AL01,t_acc.,AL02,t_acc.,E37,t_acc.,H21,t_acc.
1989-08-26T12:00:34.960 ,2,0,0.,24.0,0.,24.0,0.,24.0,0.,24.0
1989-08-26T12:00:58.960 ,1,1,0.,24.0,0.,24.0,0.,24.0,0.,24.0
1989-08-26T12:01:22.960 ,1,0,0.,24.0,0.,24.0,0.,24.0,0.,24.0
1989-08-26T12:01:46.960 ,0,1,0.,24.0,0.,24.0,0.,24.0,0.,24.0
1989-08-26T12:02:10.960 ,0,0,0.,24.0,0.,24.0,0.,24.0,0.,24.0
1989-08-26T12:02:34.960 ,0,1,0.,24.0,0.,24.0,0.,24.0,0.,24.0
1989-08-26T12:02:58.960 ,0,0,0.,24.0,0.,24.0,0.,24.0,0.,24.0
1989-08-26T12:03:22.960 ,1,1,0.,24.0,0.,24.0,0.,24.0,0.,24.0
1989-08-26T12:03:46.960 ,1,0,0.,24.0,0.,24.0,0.,24.0,0.,24.0
1989-08-26T12:04:10.960 ,2,1,0.,24.0,0.,24.0,0.,24.0,0.,24.0
1989-08-26T12:04:34.960 ,2,0,0.,24.0,0.,24.0,0.,24.0,0.,24.0
1989-08-26T12:04:58.960 ,3,1,1.,24.0,0.,24.0,0.,24.0,0.,24.0
1989-08-26T12:05:22.960 ,3,0,0.,24.0,0.,24.0,0.,24.0,0.,24.0
1989-08-26T12:05:46.960 ,4,1,0.,24.0,0.,24.0,0.,24.0,0.,24.0
1989-08-26T12:06:10.960 ,4,0,0.,24.0,0.,24.0,0.,24.0,0.,24.0
1989-08-26T12:06:34.960 ,5,1,0.,24.0,0.,24.0,0.,24.0,0.,24.0
1989-08-26T12:06:58.960 ,5,0,0.,24.0,0.,24.0,0.,24.0,0.,24.0
1989-08-26T12:07:22.960 ,6,1,0.,24.0,0.,24.0,0.,24.0,0.,24.0
1989-08-26T12:07:46.960 ,6,0,0.,24.0,0.,24.0,0.,24.0,0.,24.0
1989-08-26T12:08:10.960 ,7,1,4.,24.0,0.,24.0,0.,24.0,0.,24.0
1989-08-26T12:08:34.960 ,7,0,34.,24.0,0.,24.0,0.,24.0,0.,24.0
1989-08-26T12:08:58.960 ,7,1,30.,24.0,0.,24.0,0.,24.0,0.,24.0
1989-08-26T12:09:22.960 ,7,0,29.,24.0,0.,24.0,0.,24.0,0.,24.0
1989-08-26T12:09:46.960 ,6,1,35.,24.0,0.,24.0,0.,24.0,0.,24.0
1989-08-26T12:10:10.960 ,6,0,0.,24.0,0.,24.0,0.,24.0,0.,24.0
1989-08-26T12:10:34.960 ,5,1,0.,24.0,0.,24.0,0.,24.0,0.,24.0
1989-08-26T12:10:58.960 ,5,0,1.,24.0,0.,24.0,0.,24.0,0.,24.0
1989-08-26T12:11:22.960 ,4,1,0.,24.0,0.,24.0,0.,24.0,0.,24.0
1989-08-26T12:11:46.960 ,4,0,0.,24.0,0.,24.0,0.,24.0,0.,24.0
1989-08-26T12:12:10.960 ,3,1,0.,24.0,1.,24.0,0.,24.0,0.,24.0
1989-08-26T12:12:34.960 ,3,0,0.,24.0,0.,24.0,0.,24.0,0.,24.0
1989-08-26T12:12:58.960 ,2,1,0.,24.0,0.,24.0,0.,24.0,0.,24.0
1989-08-26T12:13:22.960 ,2,0,0.,24.0,0.,24.0,0.,24.0,0.,24.0
1989-08-26T12:13:46.960 ,1,1,0.,24.0,0.,24.0,0.,24.0,0.,24.0
1989-08-26T12:14:10.960 ,1,0,0.,24.0,0.,24.0,0.,24.0,0.,24.0
1989-08-26T12:14:34.960 ,0,1,1.,24.0,0.,24.0,0.,24.0,0.,24.0
1989-08-26T12:14:58.960 ,0,0,0.,24.0,0.,24.0,0.,24.0,0.,24.0
1989-08-26T12:15:22.960 ,0,1,0.,24.0,0.,24.0,0.,24.0,0.,24.0
1989-08-26T12:15:46.960 ,0,0,0.,24.0,0.,24.0,0.,24.0,0.,24.0
1989-08-26T12:16:10.960 ,1,1,0.,24.0,0.,24.0,0.,24.0,0.,24.0
1989-08-26T12:16:34.960 ,1,0,0.,24.0,0.,24.0,0.,24.0,0.,24.0
1989-08-26T12:16:58.960 ,2,1,0.,24.0,0.,24.0,0.,24.0,0.,24.0
1989-08-26T12:17:22.960 ,2,0,1.,24.0,0.,24.0,0.,24.0,0.,24.0
1989-08-26T12:17:46.960 ,3,1,0.,24.0,0.,24.0,0.,24.0,0.,24.0
1989-08-26T12:18:10.960 ,3,0,0.,24.0,0.,24.0,0.,24.0,0.,24.0
1989-08-26T12:18:34.960 ,4,1,0.,24.0,0.,24.0,0.,24.0,0.,24.0
1989-08-26T12:18:58.960 ,4,0,0.,24.0,0.,24.0,0.,24.0,0.,24.0
1989-08-26T12:19:22.960 ,5,1,0.,24.0,0.,24.0,0.,24.0,0.,24.0
1989-08-26T12:19:46.960 ,5,0,0.,24.0,0.,24.0,0.,24.0,0.,24.0
1989-08-26T12:20:10.960 ,6,1,0.,24.0,0.,24.0,0.,24.0,0.,24.0
1989-08-26T12:20:34.960 ,0,0,0.,24.0,0.,24.0,0.,24.0,0.,24.0
1989-08-26T12:21:43.360 ,0,0,,0,,0,,0,,0
1989-08-26T12:21:46.960 ,7,1,39.,24.0,0.,24.0,0.,24.0,0.,24.0
1989-08-26T12:22:10.960 ,7,0,25.,24.0,0.,24.0,0.,24.0,0.,24.0
1989-08-26T12:22:34.960 ,6,1,28.,24.0,0.,24.0,0.,24.0,0.,24.0
1989-08-26T12:22:58.960 ,6,0,0.,24.0,0.,24.0,0.,24.0,0.,24.0
1989-08-26T12:23:22.960 ,5,1,0.,24.0,0.,24.0,0.,24.0,0.,24.0
1989-08-26T12:23:46.960 ,5,0,0.,24.0,0.,24.0,0.,24.0,0.,24.0
1989-08-26T12:24:10.960 ,4,1,0.,24.0,0.,24.0,0.,24.0,0.,24.0
1989-08-26T12:24:34.960 ,4,0,0.,24.0,0.,24.0,0.,24.0,0.,24.0
1989-08-26T12:24:58.960 ,3,1,0.,24.0,0.,24.0,0.,24.0,0.,24.0
1989-08-26T12:25:22.960 ,3,0,1.,24.0,0.,24.0,0.,24.0,0.,24.0
1989-08-26T12:25:46.960 ,2,1,0.,24.0,0.,24.0,0.,24.0,0.,24.0
1989-08-26T12:26:10.960 ,2,0,0.,24.0,0.,24.0,0.,24.0,0.,24.0
1989-08-26T12:26:34.960 ,1,1,0.,24.0,0.,24.0,0.,24.0,0.,24.0
1989-08-26T12:26:58.960 ,1,0,0.,24.0,0.,24.0,0.,24.0,0.,24.0
1989-08-26T12:27:22.960 ,0,1,0.,24.0,0.,24.0,0.,24.0,0.,24.0
1989-08-26T12:27:46.960 ,0,0,0.,24.0,0.,24.0,0.,24.0,0.,24.0
1989-08-26T12:28:10.960 ,0,1,0.,24.0,0.,24.0,0.,24.0,0.,24.0
1989-08-26T12:28:34.960 ,0,0,0.,24.0,0.,24.0,0.,24.0,0.,24.0
1989-08-26T12:28:58.960 ,1,1,0.,24.0,0.,24.0,0.,24.0,0.,24.0
1989-08-26T12:29:22.960 ,1,0,0.,24.0,0.,24.0,0.,24.0,0.,24.0
1989-08-26T12:29:46.960 ,2,1,0.,24.0,0.,24.0,0.,24.0,0.,24.0
1989-08-26T12:30:10.960 ,2,0,0.,24.0,0.,24.0,0.,24.0,0.,24.0
1989-08-26T12:30:34.960 ,3,1,0.,24.0,0.,24.0,0.,24.0,0.,24.0
1989-08-26T12:30:58.960 ,3,0,0.,24.0,0.,24.0,0.,24.0,0.,24.0
1989-08-26T12:31:22.960 ,4,1,0.,24.0,0.,24.0,0.,24.0,0.,24.0
1989-08-26T12:31:46.960 ,4,0,1.,24.0,0.,24.0,0.,24.0,0.,24.0
1989-08-26T12:32:10.960 ,5,1,0.,24.0,0.,24.0,0.,24.0,0.,24.0
1989-08-26T12:32:34.960 ,5,0,0.,24.0,0.,24.0,0.,24.0,0.,24.0
1989-08-26T12:32:58.960 ,6,1,0.,24.0,0.,24.0,0.,24.0,0.,24.0
1989-08-26T12:33:22.960 ,6,0,0.,24.0,0.,24.0,0.,24.0,0.,24.0
1989-08-26T12:33:46.960 ,7,1,2.,24.0,0.,24.0,0.,24.0,0.,24.0
1989-08-26T12:34:10.960 ,7,0,26.,24.0,0.,24.0,0.,24.0,0.,24.0
1989-08-26T12:34:34.960 ,7,1,35.,24.0,0.,24.0,0.,24.0,0.,24.0
1989-08-26T12:34:58.960 ,7,0,27.,24.0,0.,24.0,0.,24.0,0.,24.0
1989-08-26T12:35:22.960 ,6,1,22.,24.0,0.,24.0,0.,24.0,0.,24.0
1989-08-26T12:35:46.960 ,6,0,0.,24.0,0.,24.0,0.,24.0,0.,24.0
1989-08-26T12:36:10.960 ,5,1,0.,24.0,1.,24.0,0.,24.0,0.,24.0
1989-08-26T12:36:34.960 ,5,0,0.,24.0,0.,24.0,0.,24.0,0.,24.0
1989-08-26T12:36:58.960 ,4,1,0.,24.0,0.,24.0,0.,24.0,0.,24.0
1989-08-26T12:37:22.960 ,4,0,0.,24.0,0.,24.0,0.,24.0,0.,24.0
1989-08-26T12:37:46.960 ,3,1,0.,24.0,0.,24.0,0.,24.0,0.,24.0
1989-08-26T12:38:10.960 ,3,0,0.,24.0,0.,24.0,0.,24.0,0.,24.0
1989-08-26T12:38:34.960 ,2,1,1.,24.0,0.,24.0,0.,24.0,0.,24.0
1989-08-26T12:38:58.960 ,2,0,0.,24.0,0.,24.0,0.,24.0,0.,24.0
1989-08-26T12:39:22.960 ,1,1,0.,24.0,0.,24.0,0.,24.0,0.,24.0
1989-08-26T12:39:46.960 ,1,0,0.,24.0,1.,24.0,0.,24.0,0.,24.0
1989-08-26T12:40:10.960 ,0,1,0.,24.0,0.,24.0,0.,24.0,0.,24.0
1989-08-26T12:40:34.960 ,0,0,,0,,0,,0,,0
1989-08-26T12:40:46.960 ,0,0,,0,,0,,0,,0
1989-08-26T12:40:58.960 ,0,1,1.,24.0,0.,24.0,0.,24.0,0.,24.0
1989-08-26T12:41:22.960 ,0,0,0.,24.0,0.,24.0,0.,24.0,0.,24.0
1989-08-26T12:41:46.960 ,1,1,0.,24.0,0.,24.0,0.,24.0,0.,24.0
1989-08-26T12:42:10.960 ,0,0,0.,24.0,0.,24.0,0.,24.0,0.,24.0
1989-08-26T12:42:28.960 ,0,0,,0,,0,,0,,0
1989-08-26T12:42:34.960 ,2,1,0.,24.0,0.,24.0,0.,24.0,0.,24.0
1989-08-26T12:42:58.960 ,2,0,0.,24.0,0.,24.0,0.,24.0,0.,24.0
1989-08-26T12:43:22.960 ,3,1,0.,24.0,0.,24.0,0.,24.0,0.,24.0
1989-08-26T12:43:46.960 ,0,0,,0,,0,,0,,0
1989-08-26T12:43:57.760 ,0,0,0.,24.0,0.,24.0,0.,24.0,0.,24.0
1989-08-26T12:44:10.960 ,4,1,0.,24.0,0.,24.0,0.,24.0,0.,24.0
1989-08-26T12:44:34.960 ,4,0,1.,24.0,0.,24.0,0.,24.0,0.,24.0
1989-08-26T12:44:58.960 ,5,1,0.,24.0,0.,24.0,0.,24.0,0.,24.0
1989-08-26T12:45:22.960 ,5,0,0.,24.0,0.,24.0,0.,24.0,0.,24.0
1989-08-26T12:45:46.960 ,6,1,0.,24.0,0.,24.0,0.,24.0,0.,24.0
1989-08-26T12:46:10.960 ,6,0,0.,24.0,0.,24.0,0.,24.0,0.,24.0
1989-08-26T12:46:34.960 ,7,1,6.,24.0,0.,24.0,0.,24.0,0.,24.0
1989-08-26T12:46:58.960 ,7,0,36.,24.0,0.,24.0,0.,24.0,0.,24.0
1989-08-26T12:47:22.960 ,7,1,34.,24.0,0.,24.0,0.,24.0,0.,24.0
1989-08-26T12:47:46.960 ,7,0,35.,24.0,0.,24.0,0.,24.0,0.,24.0
1989-08-26T12:48:10.960 ,6,1,26.,24.0,0.,24.0,0.,24.0,0.,24.0
1989-08-26T12:48:34.960 ,6,0,0.,24.0,0.,24.0,0.,24.0,0.,24.0
1989-08-26T12:48:58.960 ,5,1,0.,24.0,0.,24.0,0.,24.0,0.,24.0
1989-08-26T12:49:22.960 ,5,0,0.,24.0,0.,24.0,0.,24.0,0.,24.0
1989-08-26T12:49:46.960 ,4,1,0.,24.0,0.,24.0,0.,24.0,0.,24.0
1989-08-26T12:50:10.960 ,4,0,0.,24.0,0.,24.0,0.,24.0,0.,24.0
1989-08-26T12:50:34.960 ,3,1,0.,24.0,0.,24.0,0.,24.0,0.,24.0
1989-08-26T12:50:58.960 ,3,0,0.,24.0,0.,24.0,0.,24.0,0.,24.0
1989-08-26T12:51:22.960 ,2,1,1.,24.0,0.,24.0,0.,24.0,0.,24.0
1989-08-26T12:51:46.960 ,2,0,0.,24.0,0.,24.0,0.,24.0,0.,24.0
1989-08-26T12:52:10.960 ,1,1,0.,24.0,0.,24.0,0.,24.0,0.,24.0
1989-08-26T12:52:34.960 ,1,0,0.,24.0,0.,24.0,0.,24.0,0.,24.0
1989-08-26T12:52:58.960 ,0,1,0.,24.0,0.,24.0,0.,24.0,0.,24.0
1989-08-26T12:53:22.960 ,0,0,0.,24.0,0.,24.0,0.,24.0,0.,24.0
1989-08-26T12:53:46.960 ,0,1,0.,24.0,0.,24.0,0.,24.0,0.,24.0
1989-08-26T12:54:10.960 ,0,0,0.,24.0,0.,24.0,0.,24.0,0.,24.0
1989-08-26T12:54:34.960 ,1,1,0.,24.0,0.,24.0,0.,24.0,0.,24.0
1989-08-26T12:54:58.960 ,0,0,0.,24.0,0.,24.0,0.,24.0,0.,24.0
1989-08-26T12:56:07.360 ,0,0,,0,,0,,0,,0
1989-08-26T12:56:10.960 ,3,1,0.,24.0,0.,24.0,0.,24.0,0.,24.0
1989-08-26T12:56:34.960 ,3,0,0.,24.0,0.,24.0,0.,24.0,0.,24.0
1989-08-26T12:56:58.960 ,4,1,0.,24.0,0.,24.0,0.,24.0,0.,24.0
1989-08-26T12:57:22.960 ,4,0,0.,24.0,0.,24.0,0.,24.0,0.,24.0
1989-08-26T12:57:46.960 ,5,1,0.,24.0,0.,24.0,0.,24.0,0.,24.0
1989-08-26T12:58:10.960 ,5,0,0.,24.0,0.,24.0,0.,24.0,0.,24.0
1989-08-26T12:58:34.960 ,6,1,0.,24.0,0.,24.0,0.,24.0,0.,24.0
1989-08-26T12:58:58.960 ,6,0,0.,24.0,0.,24.0,0.,24.0,0.,24.0
1989-08-26T12:59:22.960 ,7,1,7.,24.0,0.,24.0,0.,24.0,0.,24.0
1989-08-26T12:59:46.960 ,7,0,31.,24.0,0.,24.0,0.,24.0,0.,24.0
1989-08-26T13:00:10.960 ,7,1,29.,24.0,0.,24.0,0.,24.0,0.,24.0
1989-08-26T13:00:34.960 ,7,0,20.,24.0,0.,24.0,0.,24.0,0.,24.0
1989-08-26T13:00:58.960 ,6,1,21.,24.0,0.,24.0,0.,24.0,0.,24.0
1989-08-26T13:01:22.960 ,6,0,0.,24.0,0.,24.0,0.,24.0,0.,24.0
1989-08-26T13:01:46.960 ,5,1,0.,24.0,0.,24.0,0.,24.0,0.,24.0
1989-08-26T13:02:10.960 ,5,0,0.,24.0,0.,24.0,0.,24.0,0.,24.0
1989-08-26T13:02:34.960 ,4,1,0.,24.0,0.,24.0,0.,24.0,0.,24.0
1989-08-26T13:02:58.960 ,4,0,0.,24.0,0.,24.0,0.,24.0,0.,24.0
1989-08-26T13:03:22.960 ,3,1,0.,24.0,0.,24.0,0.,24.0,0.,24.0
1989-08-26T13:03:46.960 ,3,0,1.,24.0,0.,24.0,0.,24.0,0.,24.0
1989-08-26T13:04:10.960 ,2,1,0.,24.0,0.,24.0,0.,24.0,0.,24.0
1989-08-26T13:04:34.960 ,2,0,0.,24.0,0.,24.0,0.,24.0,0.,24.0
1989-08-26T13:04:58.960 ,1,1,0.,24.0,0.,24.0,0.,24.0,0.,24.0
1989-08-26T13:05:22.960 ,1,0,0.,24.0,0.,24.0,0.,24.0,0.,24.0
1989-08-26T13:05:46.960 ,0,1,0.,24.0,0.,24.0,0.,24.0,0.,24.0
1989-08-26T13:06:10.960 ,0,0,0.,24.0,0.,24.0,0.,24.0,0.,24.0
1989-08-26T13:06:34.960 ,0,1,0.,24.0,0.,24.0,0.,24.0,0.,24.0
1989-08-26T13:06:58.960 ,0,0,0.,24.0,0.,24.0,0.,24.0,0.,24.0
1989-08-26T13:07:22.960 ,1,1,0.,24.0,0.,24.0,0.,24.0,0.,24.0
1989-08-26T13:07:46.960 ,1,0,0.,24.0,0.,24.0,0.,24.0,0.,24.0
1989-08-26T13:08:10.960 ,2,1,0.,24.0,0.,24.0,0.,24.0,0.,24.0
1989-08-26T13:08:34.960 ,2,0,0.,24.0,0.,24.0,0.,24.0,0.,24.0
1989-08-26T13:08:58.960 ,3,1,0.,24.0,0.,24.0,0.,24.0,0.,24.0
1989-08-26T13:09:22.960 ,3,0,0.,24.0,0.,24.0,0.,24.0,0.,24.0
1989-08-26T13:09:46.960 ,4,1,0.,24.0,0.,24.0,0.,24.0,0.,24.0
1989-08-26T13:10:10.960 ,4,0,0.,24.0,0.,24.0,0.,24.0,0.,24.0
1989-08-26T13:10:34.960 ,5,1,0.,24.0,0.,24.0,0.,24.0,0.,24.0
1989-08-26T13:10:58.960 ,5,0,0.,24.0,0.,24.0,0.,24.0,0.,24.0
1989-08-26T13:11:22.960 ,6,1,0.,24.0,0.,24.0,0.,24.0,0.,24.0
1989-08-26T13:11:46.960 ,6,0,0.,24.0,0.,24.0,0.,24.0,0.,24.0
1989-08-26T13:12:10.960 ,7,1,6.,24.0,1.,24.0,0.,24.0,0.,24.0
1989-08-26T13:12:34.960 ,7,0,22.,24.0,0.,24.0,0.,24.0,0.,24.0
1989-08-26T13:12:58.960 ,7,1,39.,24.0,0.,24.0,0.,24.0,0.,24.0
1989-08-26T13:13:22.960 ,7,0,34.,24.0,1.,24.0,0.,24.0,0.,24.0
1989-08-26T13:13:46.960 ,6,1,18.,24.0,0.,24.0,0.,24.0,0.,24.0
1989-08-26T13:14:10.960 ,6,0,0.,24.0,0.,24.0,0.,24.0,0.,24.0
1989-08-26T13:14:34.960 ,5,1,0.,24.0,0.,24.0,0.,24.0,0.,24.0
1989-08-26T13:14:58.960 ,5,0,0.,24.0,0.,24.0,0.,24.0,0.,24.0
1989-08-26T13:15:22.960 ,4,1,0.,24.0,0.,24.0,0.,24.0,0.,24.0
1989-08-26T13:15:46.960 ,4,0,0.,24.0,0.,24.0,0.,24.0,0.,24.0
1989-08-26T13:16:10.960 ,3,1,0.,24.0,0.,24.0,0.,24.0,0.,24.0
1989-08-26T13:16:34.960 ,3,0,0.,24.0,0.,24.0,0.,24.0,0.,24.0
1989-08-26T13:16:58.960 ,2,1,0.,24.0,0.,24.0,0.,24.0,0.,24.0
1989-08-26T13:17:22.960 ,2,0,0.,24.0,0.,24.0,0.,24.0,0.,24.0
1989-08-26T13:17:46.960 ,1,1,0.,24.0,0.,24.0,0.,24.0,0.,24.0
1989-08-26T13:18:10.960 ,1,0,0.,24.0,0.,24.0,0.,24.0,0.,24.0
1989-08-26T13:18:34.960 ,0,1,0.,24.0,0.,24.0,0.,24.0,0.,24.0
1989-08-26T13:18:58.960 ,0,0,0.,24.0,0.,24.0,0.,24.0,0.,24.0
1989-08-26T13:19:22.960 ,0,1,0.,24.0,0.,24.0,0.,24.0,0.,24.0
1989-08-26T13:19:46.960 ,0,0,0.,24.0,0.,24.0,0.,24.0,0.,24.0
1989-08-26T13:20:10.960 ,1,1,0.,24.0,0.,24.0,0.,24.0,0.,24.0
1989-08-26T13:20:34.960 ,1,0,0.,24.0,0.,24.0,0.,24.0,0.,24.0
1989-08-26T13:20:58.960 ,2,1,0.,24.0,0.,24.0,0.,24.0,0.,24.0
1989-08-26T13:21:22.960 ,2,0,0.,24.0,0.,24.0,0.,24.0,0.,24.0
1989-08-26T13:21:46.960 ,3,1,0.,24.0,0.,24.0,0.,24.0,0.,24.0
1989-08-26T13:22:10.960 ,3,0,0.,24.0,0.,24.0,0.,24.0,0.,24.0
1989-08-26T13:22:34.960 ,4,1,0.,24.0,0.,24.0,0.,24.0,0.,24.0
1989-08-26T13:22:58.960 ,4,0,0.,24.0,0.,24.0,0.,24.0,0.,24.0
1989-08-26T13:23:22.960 ,5,1,0.,24.0,0.,24.0,0.,24.0,0.,24.0
1989-08-26T13:23:46.960 ,5,0,0.,24.0,0.,24.0,0.,24.0,0.,24.0
1989-08-26T13:24:10.960 ,6,1,0.,24.0,0.,24.0,0.,24.0,0.,24.0
1989-08-26T13:24:34.960 ,6,0,1.,24.0,0.,24.0,0.,24.0,0.,24.0
1989-08-26T13:24:58.960 ,7,1,5.,24.0,0.,24.0,0.,24.0,0.,24.0
1989-08-26T13:25:22.960 ,7,0,28.,24.0,0.,24.0,0.,24.0,0.,24.0
1989-08-26T13:25:46.960 ,7,1,21.,24.0,0.,24.0,0.,24.0,0.,24.0
1989-08-26T13:26:10.960 ,7,0,41.,24.0,0.,24.0,0.,24.0,0.,24.0
1989-08-26T13:26:34.960 ,6,1,28.,24.0,0.,24.0,0.,24.0,0.,24.0
1989-08-26T13:26:58.960 ,6,0,0.,24.0,0.,24.0,0.,24.0,0.,24.0
1989-08-26T13:27:22.960 ,5,1,0.,24.0,0.,24.0,0.,24.0,0.,24.0
1989-08-26T13:27:46.960 ,5,0,0.,24.0,0.,24.0,0.,24.0,0.,24.0
1989-08-26T13:28:10.960 ,4,1,0.,24.0,0.,24.0,0.,24.0,0.,24.0
1989-08-26T13:28:34.960 ,4,0,1.,24.0,0.,24.0,0.,24.0,0.,24.0
1989-08-26T13:28:58.960 ,3,1,0.,24.0,0.,24.0,0.,24.0,0.,24.0
1989-08-26T13:29:22.960 ,3,0,0.,24.0,1.,24.0,0.,24.0,0.,24.0
1989-08-26T13:29:46.960 ,2,1,0.,24.0,0.,24.0,0.,24.0,0.,24.0
1989-08-26T13:30:10.960 ,2,0,0.,24.0,0.,24.0,0.,24.0,0.,24.0
1989-08-26T13:30:34.960 ,1,1,0.,24.0,0.,24.0,0.,24.0,0.,24.0
1989-08-26T13:30:58.960 ,1,0,0.,24.0,0.,24.0,0.,24.0,0.,24.0
1989-08-26T13:31:22.960 ,0,1,0.,24.0,0.,24.0,0.,24.0,0.,24.0
1989-08-26T13:31:46.960 ,0,0,0.,24.0,0.,24.0,0.,24.0,0.,24.0
1989-08-26T13:32:10.960 ,0,1,0.,24.0,0.,24.0,0.,24.0,0.,24.0
1989-08-26T13:32:34.960 ,0,0,1.,24.0,0.,24.0,0.,24.0,0.,24.0
1989-08-26T13:32:58.960 ,1,1,0.,24.0,0.,24.0,0.,24.0,0.,24.0
1989-08-26T13:33:22.960 ,1,0,0.,24.0,0.,24.0,0.,24.0,0.,24.0
1989-08-26T13:33:46.960 ,2,1,0.,24.0,0.,24.0,0.,24.0,0.,24.0
1989-08-26T13:34:10.960 ,2,0,0.,24.0,0.,24.0,0.,24.0,0.,24.0
1989-08-26T13:34:34.960 ,3,1,0.,24.0,0.,24.0,0.,24.0,0.,24.0
1989-08-26T13:34:58.960 ,3,0,0.,24.0,0.,24.0,0.,24.0,0.,24.0
1989-08-26T13:35:22.960 ,4,1,0.,24.0,0.,24.0,0.,24.0,0.,24.0
1989-08-26T13:35:46.960 ,4,0,0.,24.0,0.,24.0,0.,24.0,0.,24.0
1989-08-26T13:36:10.960 ,5,1,0.,24.0,0.,24.0,0.,24.0,0.,24.0
1989-08-26T13:36:34.960 ,5,0,0.,24.0,0.,24.0,0.,24.0,0.,24.0
1989-08-26T13:36:58.960 ,6,1,0.,24.0,0.,24.0,0.,24.0,0.,24.0
1989-08-26T13:37:22.960 ,6,0,0.,24.0,0.,24.0,0.,24.0,0.,24.0
1989-08-26T13:37:46.960 ,7,1,5.,24.0,0.,24.0,0.,24.0,0.,24.0
1989-08-26T13:38:10.960 ,7,0,26.,24.0,0.,24.0,0.,24.0,0.,24.0
1989-08-26T13:38:34.960 ,7,1,31.,24.0,0.,24.0,0.,24.0,0.,24.0
1989-08-26T13:38:58.960 ,7,0,40.,24.0,0.,24.0,0.,24.0,0.,24.0
1989-08-26T13:39:22.950 ,6,1,27.,24.0,0.,24.0,0.,24.0,0.,24.0
1989-08-26T13:39:46.950 ,6,0,0.,24.0,0.,24.0,0.,24.0,0.,24.0
1989-08-26T13:40:10.950 ,5,1,0.,24.0,0.,24.0,0.,24.0,0.,24.0
1989-08-26T13:40:34.950 ,5,0,0.,24.0,0.,24.0,0.,24.0,0.,24.0
1989-08-26T13:40:58.950 ,4,1,0.,24.0,0.,24.0,0.,24.0,0.,24.0
1989-08-26T13:41:22.950 ,4,0,0.,24.0,0.,24.0,0.,24.0,0.,24.0
1989-08-26T13:41:46.950 ,3,1,0.,24.0,0.,24.0,0.,24.0,0.,24.0
1989-08-26T13:42:10.950 ,3,0,0.,24.0,1.,24.0,0.,24.0,0.,24.0
1989-08-26T13:42:34.950 ,2,1,0.,24.0,0.,24.0,0.,24.0,0.,24.0
1989-08-26T13:42:58.950 ,2,0,0.,24.0,0.,24.0,0.,24.0,0.,24.0
1989-08-26T13:43:22.950 ,1,1,0.,24.0,0.,24.0,0.,24.0,0.,24.0
1989-08-26T13:43:46.950 ,1,0,0.,24.0,0.,24.0,0.,24.0,0.,24.0
1989-08-26T13:44:10.950 ,0,1,0.,24.0,0.,24.0,0.,24.0,0.,24.0
1989-08-26T13:44:34.950 ,0,0,0.,24.0,0.,24.0,0.,24.0,0.,24.0
1989-08-26T13:44:58.950 ,0,1,0.,24.0,0.,24.0,0.,24.0,0.,24.0
1989-08-26T13:45:22.950 ,0,0,0.,24.0,0.,24.0,0.,24.0,0.,24.0
1989-08-26T13:45:46.950 ,1,1,0.,24.0,0.,24.0,0.,24.0,0.,24.0
1989-08-26T13:46:10.950 ,1,0,0.,24.0,0.,24.0,0.,24.0,0.,24.0
1989-08-26T13:46:34.950 ,2,1,0.,24.0,0.,24.0,0.,24.0,0.,24.0
1989-08-26T13:46:58.950 ,2,0,0.,24.0,0.,24.0,0.,24.0,0.,24.0
1989-08-26T13:47:22.950 ,3,1,0.,24.0,0.,24.0,0.,24.0,0.,24.0
1989-08-26T13:47:46.950 ,3,0,0.,24.0,0.,24.0,0.,24.0,0.,24.0
1989-08-26T13:48:10.950 ,4,1,0.,24.0,0.,24.0,0.,24.0,0.,24.0
1989-08-26T13:48:34.950 ,4,0,0.,24.0,0.,24.0,0.,24.0,0.,24.0
1989-08-26T13:48:58.950 ,5,1,1.,24.0,1.,24.0,0.,24.0,0.,24.0
1989-08-26T13:49:22.950 ,5,0,0.,24.0,0.,24.0,0.,24.0,0.,24.0
1989-08-26T13:49:46.950 ,6,1,0.,24.0,0.,24.0,0.,24.0,0.,24.0
1989-08-26T13:50:10.950 ,6,0,0.,24.0,0.,24.0,0.,24.0,0.,24.0
1989-08-26T13:50:34.950 ,7,1,7.,24.0,0.,24.0,0.,24.0,0.,24.0
1989-08-26T13:50:58.950 ,7,0,25.,24.0,0.,24.0,0.,24.0,0.,24.0
1989-08-26T13:51:22.950 ,7,1,23.,24.0,0.,24.0,0.,24.0,0.,24.0
1989-08-26T13:51:46.950 ,7,0,30.,24.0,0.,24.0,0.,24.0,0.,24.0
1989-08-26T13:52:10.950 ,6,1,15.,24.0,0.,24.0,0.,24.0,0.,24.0
1989-08-26T13:52:34.950 ,6,0,0.,24.0,0.,24.0,0.,24.0,0.,24.0
1989-08-26T13:52:58.950 ,5,1,0.,24.0,0.,24.0,0.,24.0,0.,24.0
1989-08-26T13:53:22.950 ,5,0,0.,24.0,0.,24.0,0.,24.0,0.,24.0
1989-08-26T13:53:46.950 ,4,1,0.,24.0,0.,24.0,0.,24.0,0.,24.0
1989-08-26T13:54:10.950 ,4,0,0.,24.0,0.,24.0,0.,24.0,0.,24.0
1989-08-26T13:54:34.950 ,3,1,0.,24.0,0.,24.0,0.,24.0,0.,24.0
1989-08-26T13:54:58.950 ,3,0,0.,24.0,0.,24.0,0.,24.0,0.,24.0
1989-08-26T13:55:22.950 ,2,1,0.,24.0,0.,24.0,0.,24.0,0.,24.0
1989-08-26T13:55:46.950 ,2,0,0.,24.0,0.,24.0,0.,24.0,0.,24.0
1989-08-26T13:56:10.950 ,1,1,0.,24.0,0.,24.0,0.,24.0,0.,24.0
1989-08-26T13:56:34.950 ,1,0,0.,24.0,0.,24.0,0.,24.0,0.,24.0
1989-08-26T13:56:58.950 ,0,1,0.,24.0,0.,24.0,0.,24.0,0.,24.0
1989-08-26T13:57:22.950 ,0,0,0.,24.0,0.,24.0,0.,24.0,0.,24.0
1989-08-26T13:57:46.950 ,0,1,0.,24.0,0.,24.0,0.,24.0,0.,24.0
1989-08-26T13:58:10.950 ,0,0,0.,24.0,0.,24.0,0.,24.0,0.,24.0
1989-08-26T13:58:34.950 ,1,1,0.,24.0,0.,24.0,0.,24.0,0.,24.0
1989-08-26T13:58:58.950 ,1,0,0.,24.0,0.,24.0,0.,24.0,0.,24.0
1989-08-26T13:59:22.950 ,2,1,0.,24.0,0.,24.0,0.,24.0,0.,24.0
1989-08-26T13:59:46.950 ,2,0,0.,24.0,0.,24.0,0.,24.0,0.,24.0
1989-08-26T14:00:10.950 ,3,1,0.,24.0,0.,24.0,0.,24.0,0.,24.0
1989-08-26T14:00:34.950 ,3,0,0.,24.0,0.,24.0,0.,24.0,0.,24.0
1989-08-26T14:00:58.950 ,4,1,0.,24.0,0.,24.0,0.,24.0,0.,24.0
1989-08-26T14:01:22.950 ,4,0,0.,24.0,0.,24.0,0.,24.0,0.,24.0
1989-08-26T14:01:46.950 ,5,1,0.,24.0,0.,24.0,0.,24.0,0.,24.0
1989-08-26T14:02:10.950 ,5,0,0.,24.0,0.,24.0,0.,24.0,0.,24.0
1989-08-26T14:02:34.950 ,6,1,0.,24.0,0.,24.0,0.,24.0,0.,24.0
1989-08-26T14:02:58.950 ,6,0,0.,24.0,0.,24.0,0.,24.0,0.,24.0
1989-08-26T14:03:22.950 ,7,1,14.,24.0,1.,24.0,0.,24.0,0.,24.0
1989-08-26T14:03:46.950 ,7,0,29.,24.0,0.,24.0,0.,24.0,0.,24.0
1989-08-26T14:04:10.950 ,7,1,24.,24.0,0.,24.0,0.,24.0,0.,24.0
1989-08-26T14:04:34.950 ,7,0,29.,24.0,0.,24.0,0.,24.0,0.,24.0
1989-08-26T14:04:58.950 ,6,1,21.,24.0,0.,24.0,0.,24.0,0.,24.0
1989-08-26T14:05:22.950 ,6,0,0.,24.0,0.,24.0,0.,24.0,0.,24.0
1989-08-26T14:05:46.950 ,5,1,0.,24.0,0.,24.0,0.,24.0,0.,24.0
1989-08-26T14:06:10.950 ,5,0,0.,24.0,0.,24.0,0.,24.0,0.,24.0
1989-08-26T14:06:34.950 ,4,1,0.,24.0,0.,24.0,0.,24.0,0.,24.0
1989-08-26T14:06:58.950 ,4,0,0.,24.0,0.,24.0,0.,24.0,0.,24.0
1989-08-26T14:07:22.950 ,3,1,0.,24.0,0.,24.0,0.,24.0,0.,24.0
1989-08-26T14:07:46.950 ,3,0,0.,24.0,1.,24.0,0.,24.0,0.,24.0
1989-08-26T14:08:10.950 ,2,1,0.,24.0,0.,24.0,0.,24.0,0.,24.0
1989-08-26T14:08:34.950 ,2,0,0.,24.0,0.,24.0,0.,24.0,0.,24.0
1989-08-26T14:08:58.950 ,1,1,0.,24.0,0.,24.0,0.,24.0,0.,24.0
1989-08-26T14:09:22.950 ,1,0,0.,24.0,0.,24.0,0.,24.0,0.,24.0
1989-08-26T14:09:46.950 ,0,1,0.,24.0,0.,24.0,0.,24.0,0.,24.0
1989-08-26T14:10:10.950 ,0,0,0.,24.0,0.,24.0,0.,24.0,0.,24.0
1989-08-26T14:10:34.950 ,0,1,0.,24.0,0.,24.0,0.,24.0,0.,24.0
1989-08-26T14:10:58.950 ,0,0,0.,24.0,0.,24.0,0.,24.0,0.,24.0
1989-08-26T14:11:22.950 ,1,1,0.,24.0,0.,24.0,0.,24.0,0.,24.0
1989-08-26T14:11:46.950 ,1,0,0.,24.0,0.,24.0,0.,24.0,0.,24.0
1989-08-26T14:12:10.950 ,2,1,0.,24.0,0.,24.0,0.,24.0,0.,24.0
1989-08-26T14:12:34.950 ,2,0,0.,24.0,0.,24.0,0.,24.0,0.,24.0
1989-08-26T14:12:58.950 ,3,1,0.,24.0,0.,24.0,0.,24.0,0.,24.0
1989-08-26T14:13:22.950 ,3,0,0.,24.0,1.,24.0,0.,24.0,0.,24.0
1989-08-26T14:13:46.950 ,4,1,0.,24.0,0.,24.0,0.,24.0,0.,24.0
1989-08-26T14:14:10.950 ,4,0,0.,24.0,0.,24.0,0.,24.0,0.,24.0
1989-08-26T14:14:34.950 ,5,1,0.,24.0,0.,24.0,0.,24.0,0.,24.0
1989-08-26T14:14:58.950 ,5,0,0.,24.0,0.,24.0,0.,24.0,0.,24.0
1989-08-26T14:15:22.950 ,6,1,0.,24.0,0.,24.0,0.,24.0,0.,24.0
1989-08-26T14:15:46.950 ,6,0,0.,24.0,0.,24.0,0.,24.0,0.,24.0
1989-08-26T14:16:10.950 ,7,1,5.,24.0,0.,24.0,0.,24.0,0.,24.0
1989-08-26T14:16:34.950 ,7,0,30.,24.0,0.,24.0,0.,24.0,0.,24.0
1989-08-26T14:16:58.950 ,7,1,25.,24.0,0.,24.0,0.,24.0,0.,24.0
1989-08-26T14:17:22.950 ,7,0,38.,24.0,0.,24.0,0.,24.0,0.,24.0
1989-08-26T14:17:46.950 ,6,1,22.,24.0,0.,24.0,0.,24.0,0.,24.0
1989-08-26T14:18:10.950 ,6,0,0.,24.0,0.,24.0,0.,24.0,0.,24.0
1989-08-26T14:18:34.950 ,5,1,0.,24.0,0.,24.0,0.,24.0,0.,24.0
1989-08-26T14:18:58.950 ,5,0,0.,24.0,0.,24.0,0.,24.0,0.,24.0
1989-08-26T14:19:22.950 ,4,1,0.,24.0,0.,24.0,0.,24.0,0.,24.0
1989-08-26T14:19:46.950 ,4,0,0.,24.0,0.,24.0,0.,24.0,0.,24.0
1989-08-26T14:20:10.950 ,3,1,0.,24.0,0.,24.0,0.,24.0,0.,24.0
1989-08-26T14:20:34.950 ,3,0,0.,24.0,0.,24.0,0.,24.0,0.,24.0
1989-08-26T14:20:58.950 ,2,1,0.,24.0,0.,24.0,0.,24.0,0.,24.0
1989-08-26T14:21:22.950 ,2,0,0.,24.0,0.,24.0,0.,24.0,0.,24.0
1989-08-26T14:21:46.950 ,1,1,0.,24.0,0.,24.0,0.,24.0,0.,24.0
1989-08-26T14:22:10.950 ,1,0,0.,24.0,0.,24.0,0.,24.0,0.,24.0
1989-08-26T14:22:34.950 ,0,1,0.,24.0,0.,24.0,0.,24.0,0.,24.0
1989-08-26T14:22:58.950 ,0,0,0.,24.0,0.,24.0,0.,24.0,0.,24.0
1989-08-26T14:23:22.950 ,0,1,0.,24.0,0.,24.0,0.,24.0,0.,24.0
1989-08-26T14:23:46.950 ,0,0,0.,24.0,0.,24.0,0.,24.0,0.,24.0
1989-08-26T14:24:10.950 ,1,1,0.,24.0,0.,24.0,0.,24.0,0.,24.0
1989-08-26T14:24:34.950 ,1,0,0.,24.0,0.,24.0,0.,24.0,0.,24.0
1989-08-26T14:24:58.950 ,2,1,0.,24.0,0.,24.0,0.,24.0,0.,24.0
1989-08-26T14:25:22.950 ,2,0,0.,24.0,0.,24.0,0.,24.0,0.,24.0
1989-08-26T14:25:46.950 ,3,1,0.,24.0,0.,24.0,0.,24.0,0.,24.0
1989-08-26T14:26:10.950 ,3,0,0.,24.0,0.,24.0,0.,24.0,0.,24.0
1989-08-26T14:26:34.950 ,4,1,0.,24.0,0.,24.0,0.,24.0,0.,24.0
1989-08-26T14:26:58.950 ,4,0,0.,24.0,0.,24.0,0.,24.0,0.,24.0
1989-08-26T14:27:22.950 ,5,1,0.,24.0,0.,24.0,0.,24.0,0.,24.0
1989-08-26T14:27:46.950 ,5,0,0.,24.0,0.,24.0,0.,24.0,0.,24.0
1989-08-26T14:28:10.950 ,6,1,0.,24.0,0.,24.0,0.,24.0,0.,24.0
1989-08-26T14:28:34.950 ,6,0,0.,24.0,0.,24.0,0.,24.0,0.,24.0
1989-08-26T14:28:58.950 ,7,1,3.,24.0,0.,24.0,0.,24.0,0.,24.0
1989-08-26T14:29:22.950 ,7,0,33.,24.0,0.,24.0,0.,24.0,0.,24.0
1989-08-26T14:29:46.950 ,7,1,23.,24.0,0.,24.0,0.,24.0,0.,24.0
1989-08-26T14:30:10.950 ,7,0,28.,24.0,0.,24.0,0.,24.0,0.,24.0
1989-08-26T14:30:34.950 ,6,1,19.,24.0,0.,24.0,0.,24.0,0.,24.0
1989-08-26T14:30:58.950 ,6,0,0.,24.0,0.,24.0,0.,24.0,0.,24.0
1989-08-26T14:31:22.950 ,5,1,0.,24.0,0.,24.0,0.,24.0,0.,24.0
1989-08-26T14:31:46.950 ,5,0,0.,24.0,0.,24.0,0.,24.0,0.,24.0
1989-08-26T14:32:10.950 ,4,1,0.,24.0,0.,24.0,0.,24.0,0.,24.0
1989-08-26T14:32:34.950 ,4,0,0.,24.0,0.,24.0,0.,24.0,0.,24.0
1989-08-26T14:32:58.950 ,3,1,0.,24.0,0.,24.0,0.,24.0,0.,24.0
1989-08-26T14:33:22.950 ,3,0,0.,24.0,0.,24.0,0.,24.0,0.,24.0
1989-08-26T14:33:46.950 ,2,1,0.,24.0,0.,24.0,0.,24.0,0.,24.0
1989-08-26T14:34:10.950 ,2,0,0.,24.0,0.,24.0,0.,24.0,0.,24.0
1989-08-26T14:34:34.950 ,1,1,0.,24.0,0.,24.0,0.,24.0,0.,24.0